{"data":{"norad_id":57753,"epoch":"2026-09-20T10:26:18.100608Z","epoch_age_seconds":137249,"freshness":"FRESH","line1":"1 57753U 23131X   26263.43493172 -.00000224  00000+0  13825-5 0  9991","line2":"2 57753  43.0024 160.0056 0000843 279.7637  80.3119 15.27577300169618","mean_motion":15.275773,"eccentricity":8.43e-5,"inclination_deg":43.0024,"raan_deg":160.0056,"arg_perigee_deg":279.7637,"mean_anomaly_deg":80.3119,"bstar":1.3825e-6,"rev_number":16961,"period_min":94.26691533057,"perigee_km":482.47878215344,"apogee_km":483.63557949232,"semimajor_km":6861.1941808229,"source":"CELESTRAK","updated_at":"2026-09-21T09:00:33.682959Z"}}